Location: Bill Sadowski Park
(25.6087°N, 80.3181°W)
Time: 16:46:57
(UTC-04:00)

ISS - Visible Passes

Search period start: 17 October 2017 00:00
Search period end: 27 October 2017 00:00
Orbit: 401 x 408 km, 51.6° (Epoch: 18 October)

Date Brightness Start Highest point End Pass type
(mag) Time Alt. Az. Time Alt. Az. Time Alt. Az.
17 Oct -2.9 20:06:21 10° NW 20:09:30 46° SW 20:11:15 22° SSE visible
18 Oct -3.8 19:14:00 10° NW 19:17:15 65° NE 19:20:30 10° SE visible
19 Oct -0.7 19:59:18 10° W 20:01:10 14° SW 20:03:00 10° SSW visible
